User: anonymous   Login
Location: Bayshore Village Mobile Home Park
(26.6945°N, 81.8642°W)
Time: 00:17:46
(UTC+00:00)
Language:

Meteor 2-10 - Orbit

View from above orbital plane
View from above orbital plane
View from above satellite
View from above satellite

Ground track
Ground track

The orbit data is extracted from the following two-line orbital elements,

1 14452U 83109A   21263.85706704  .00000071  00000-0  23153-4 0  9994
2 14452  81.1603 304.9049 0090667 184.1617 175.8820 14.26539809970950
Epoch (UTC): 20 September 2021 20:34:10
Eccentricity: 0.0090667
inclination: 81.1603°
perigee height: 738 km
apogee height: 868 km
right ascension of ascending node: 304.9049°
argument of perigee: 184.1617°
revolutions per day: 14.26539809
mean anomaly at epoch: 175.8820°
orbit number at epoch: 97095

The dashed part of the orbit path shows where the satellite is in the earth's shadow,  

DLR